�������l�o���
Date,Time,MP-1(��Sv/h),MP-2(��Sv/h),MP-3(��Sv/h),MP-4(��Sv/h),MP-5(��Sv/h),MP-6(��Sv/h),MP-7(��Sv/h),MP-8(��Sv/h),����,����(m/s),���J
2019/12/18,00:00,0.722,1.036,0.698,1.312,0.913,0.412,0.723,0.684,�k��,2.6,��
2019/12/18,00:10,0.724,1.037,0.698,1.311,0.910,0.413,0.722,0.684,�쐼,1.7,��
2019/12/18,00:20,0.722,1.038,0.699,1.309,0.912,0.413,0.721,0.684,��,3.3,��
2019/12/18,00:30,0.723,1.039,0.698,1.309,0.910,0.412,0.722,0.682,��,3.4,��
2019/12/18,00:40,0.724,1.037,0.699,1.309,0.913,0.414,0.722,0.683,��쓌,4.2,��
2019/12/18,00:50,0.724,1.037,0.696,1.308,0.910,0.413,0.723,0.683,��쓌,4.5,��
2019/12/18,01:00,0.723,1.035,0.699,1.310,0.910,0.413,0.722,0.683,��쓌,4.4,��
2019/12/18,01:10,0.725,1.035,0.698,1.308,0.910,0.414,0.722,0.684,��쓌,3.0,��
2019/12/18,01:20,0.723,1.036,0.698,1.308,0.909,0.412,0.723,0.683,��쓌,2.8,��
2019/12/18,01:30,0.723,1.034,0.700,1.309,0.911,0.414,0.723,0.685,��쓌,3.0,��
2019/12/18,01:40,0.725,1.038,0.698,1.310,0.911,0.414,0.721,0.683,��쓌,2.0,��
2019/12/18,01:50,0.724,1.036,0.700,1.311,0.911,0.413,0.723,0.682,��쓌,2.5,��
2019/12/18,02:00,0.723,1.036,0.698,1.310,0.908,0.413,0.724,0.684,��,1.2,��
2019/12/18,02:10,0.725,1.037,0.700,1.309,0.912,0.412,0.721,0.680,��,2.1,��
2019/12/18,02:20,0.723,1.036,0.698,1.310,0.911,0.411,0.722,0.682,��,1.2,��
2019/12/18,02:30,0.724,1.037,0.697,1.309,0.910,0.416,0.722,0.683,���쐼,1.2,��
2019/12/18,02:40,0.725,1.037,0.697,1.309,0.909,0.414,0.723,0.685,��쓌,1.4,��
2019/12/18,02:50,0.725,1.034,0.699,1.307,0.911,0.413,0.723,0.683,��,0.9,��
2019/12/18,03:00,0.724,1.036,0.700,1.309,0.909,0.414,0.724,0.684,�k��,0.7,��
2019/12/18,03:10,0.725,1.035,0.697,1.309,0.908,0.413,0.723,0.682,�k,0.7,��
2019/12/18,03:20,0.726,1.036,0.700,1.307,0.911,0.415,0.723,0.682,���쓌,0.7,��
2019/12/18,03:30,0.724,1.035,0.699,1.310,0.910,0.415,0.721,0.683,�k�k��,0.5,��
2019/12/18,03:40,0.723,1.034,0.699,1.311,0.910,0.414,0.723,0.684,���k��,1.8,��
2019/12/18,03:50,0.724,1.034,0.699,1.309,0.911,0.415,0.724,0.682,���k��,2.7,��
2019/12/18,04:00,0.725,1.036,0.698,1.308,0.910,0.415,0.723,0.683,��,3.9,��
2019/12/18,04:10,0.726,1.038,0.700,1.309,0.908,0.414,0.723,0.685,���k��,1.0,��
2019/12/18,04:20,0.726,1.036,0.700,1.307,0.911,0.414,0.722,0.683,-,CALM,��
2019/12/18,04:30,0.724,1.038,0.700,1.309,0.910,0.414,0.723,0.684,�쐼,0.8,��
2019/12/18,04:40,0.724,1.038,0.700,1.308,0.910,0.414,0.723,0.683,��,1.8,��
2019/12/18,04:50,0.726,1.035,0.697,1.306,0.909,0.414,0.723,0.682,�쐼,1.5,��
2019/12/18,05:00,0.724,1.037,0.698,1.309,0.910,0.414,0.722,0.683,���쐼,3.9,��
2019/12/18,05:10,0.725,1.035,0.698,1.310,0.910,0.415,0.725,0.685,���쐼,6.0,��
2019/12/18,05:20,0.725,1.036,0.698,1.309,0.910,0.414,0.723,0.684,��,7.7,��
2019/12/18,05:30,0.723,1.035,0.698,1.310,0.911,0.415,0.725,0.683,���쐼,8.8,��
2019/12/18,05:40,0.726,1.035,0.699,1.309,0.911,0.416,0.723,0.684,��,11.0,��
2019/12/18,05:50,0.726,1.037,0.699,1.313,0.910,0.416,0.725,0.684,���쐼,10.8,��
2019/12/18,06:00,0.727,1.038,0.701,1.309,0.910,0.417,0.724,0.684,���쐼,9.6,��
2019/12/18,06:10,0.724,1.037,0.700,1.310,0.912,0.415,0.723,0.685,���쐼,9.7,��
2019/12/18,06:20,0.726,1.038,0.698,1.312,0.915,0.414,0.722,0.685,���쐼,6.9,��
2019/12/18,06:30,0.725,1.037,0.699,1.310,0.913,0.416,0.723,0.684,�쐼,5.3,��
2019/12/18,06:40,0.728,1.038,0.701,1.310,0.909,0.415,0.723,0.686,���쐼,4.3,��
2019/12/18,06:50,0.727,1.038,0.702,1.312,0.911,0.415,0.724,0.684,���쐼,4.1,��
2019/12/18,07:00,0.726,1.039,0.700,1.311,0.912,0.415,0.724,0.685,���쐼,3.8,��
2019/12/18,07:10,0.725,1.037,0.700,1.310,0.911,0.417,0.725,0.685,��,4.2,��
2019/12/18,07:20,0.725,1.039,0.698,1.314,0.910,0.414,0.723,0.685,���k��,1.9,��
2019/12/18,07:30,0.727,1.038,0.700,1.313,0.911,0.415,0.724,0.684,�k�k��,2.7,��
2019/12/18,07:40,0.727,1.037,0.699,1.310,0.912,0.416,0.723,0.685,�k�k��,2.5,��
2019/12/18,07:50,0.726,1.037,0.701,1.310,0.911,0.416,0.723,0.684,�k�k��,2.4,��
2019/12/18,08:00,0.726,1.035,0.699,1.313,0.912,0.416,0.724,0.684,�k��,2.4,��
2019/12/18,08:10,0.727,1.040,0.699,1.309,0.913,0.415,0.723,0.684,���k��,3.2,��
2019/12/18,08:20,0.725,1.035,0.699,1.310,0.911,0.415,0.722,0.685,���k��,3.6,��
2019/12/18,08:30,0.726,1.037,0.700,1.314,0.910,0.416,0.723,0.684,���쐼,3.3,��
2019/12/18,08:40,0.726,1.038,0.699,1.311,0.910,0.416,0.723,0.684,��,3.1,��
2019/12/18,08:50,0.728,1.037,0.697,1.312,0.913,0.416,0.724,0.685,��,2.0,��
2019/12/18,09:00,0.726,1.036,0.701,1.310,0.911,0.415,0.724,0.687,���쐼,2.5,��
2019/12/18,09:10,0.728,1.039,0.698,1.313,0.911,0.415,0.724,0.684,���쐼,5.2,��
2019/12/18,09:20,0.727,1.038,0.702,1.315,0.911,0.416,0.722,0.685,���쐼,8.5,��
2019/12/18,09:30,0.728,1.037,0.699,1.313,0.911,0.416,0.724,0.684,���쐼,9.3,��
2019/12/18,09:40,0.730,1.037,0.701,1.315,0.913,0.416,0.723,0.687,���쐼,7.1,��
2019/12/18,09:50,0.728,1.039,0.700,1.310,0.914,0.416,0.722,0.686,���쐼,7.4,��
2019/12/18,10:00,0.729,1.037,0.701,1.312,0.914,0.414,0.722,0.684,�쐼,3.9,��
2019/12/18,10:10,0.727,1.037,0.701,1.314,0.912,0.414,0.722,0.684,���k��,3.3,��
2019/12/18,10:20,0.729,1.034,0.700,1.312,0.902,0.413,0.722,0.682,�k��,6.3,��
2019/12/18,10:30,0.727,1.031,0.700,1.315,0.894,0.414,0.723,0.683,���k��,6.0,��
2019/12/18,10:40,0.726,1.032,0.702,1.314,0.897,0.415,0.721,0.684,���k��,7.4,��
2019/12/18,10:50,0.728,1.032,0.701,1.315,-,0.414,0.722,0.682,���k��,7.7,��
2019/12/18,11:00,0.726,1.033,0.700,1.312,-,0.415,0.723,0.683,���k��,7.2,��
2019/12/18,11:10,0.727,1.035,0.701,1.315,0.906,0.414,0.724,0.683,���k��,7.1,��
2019/12/18,11:20,0.729,1.035,0.700,1.311,0.908,0.413,0.723,0.682,�k��,6.1,�L
2019/12/18,11:30,0.728,1.031,0.700,1.314,0.910,0.415,0.722,0.683,�k��,7.1,�L
2019/12/18,11:40,0.727,1.036,0.701,1.312,0.910,0.415,0.724,0.682,���k��,7.7,��
2019/12/18,11:50,0.727,1.035,0.701,1.312,0.909,0.415,0.722,0.682,���k��,8.2,��
2019/12/18,12:00,0.729,1.037,0.702,1.314,-,0.414,0.723,0.683,�k��,8.8,��
2019/12/18,12:10,0.726,1.039,0.701,1.314,-,0.415,0.723,0.684,�k��,7.2,��
2019/12/18,12:20,0.726,1.037,0.702,1.314,0.896,0.415,0.723,0.682,�k��,11.3,��
2019/12/18,12:30,0.727,1.038,0.701,1.316,0.911,0.414,0.723,0.683,�k��,10.1,��
2019/12/18,12:40,0.727,1.038,0.701,1.316,0.909,0.415,0.721,0.682,�k��,9.9,��
2019/12/18,12:50,0.726,1.037,0.702,1.314,0.909,0.415,0.723,0.683,�k��,10.8,��
2019/12/18,13:00,0.726,1.038,0.701,1.314,0.910,0.414,0.724,0.682,�k��,11.3,��
2019/12/18,13:10,0.727,1.041,0.703,1.317,0.912,0.414,0.723,0.683,�k��,8.8,��
2019/12/18,13:20,0.729,1.037,0.703,1.316,0.913,0.415,0.722,0.684,�k��,10.2,��
2019/12/18,13:30,0.727,1.036,0.702,1.314,0.911,0.415,0.724,0.682,�k��,10.8,��
2019/12/18,13:40,0.729,1.041,0.700,1.318,0.912,-,0.722,0.684,���k��,9.4,��
2019/12/18,13:50,0.728,1.041,0.700,1.315,0.913,0.414,0.722,0.682,�k��,10.4,��
2019/12/18,14:00,0.726,1.040,0.704,1.316,0.913,0.415,0.724,0.682,�k��,9.9,��
2019/12/18,14:10,0.725,1.038,0.701,1.314,0.911,0.415,0.722,0.684,�k��,9.1,��
2019/12/18,14:20,0.724,1.040,0.703,1.314,0.912,0.414,0.722,0.682,�k��,8.0,��
2019/12/18,14:30,0.724,1.041,0.700,1.318,0.913,0.414,0.722,0.684,�k��,8.3,��
2019/12/18,14:40,0.725,1.044,0.699,1.316,0.913,-,0.724,0.683,�k��,7.2,��
2019/12/18,14:50,0.723,1.042,0.700,1.316,0.913,-,0.723,0.684,���k��,8.5,��
2019/12/18,15:00,0.727,1.043,0.700,1.313,0.913,0.412,0.722,0.682,�k��,7.2,��
2019/12/18,15:10,0.728,1.044,0.702,1.317,0.914,0.415,0.722,0.683,�k��,7.7,��
2019/12/18,15:20,0.727,1.044,0.703,1.318,0.915,0.414,0.722,0.684,�k��,6.9,��
2019/12/18,15:30,0.727,1.045,0.700,1.315,0.917,0.414,0.722,0.684,�k��,7.1,��
2019/12/18,15:40,0.727,1.046,0.700,1.316,0.913,0.415,0.723,0.687,�k�k��,6.6,��
2019/12/18,15:50,0.726,1.044,0.701,1.316,0.911,0.415,0.723,0.686,�k��,7.1,��
2019/12/18,16:00,0.725,1.046,0.700,1.315,0.913,0.414,0.724,0.687,�k��,6.1,��
2019/12/18,16:10,0.727,1.046,0.700,1.316,0.914,0.414,0.723,0.685,�k�k��,5.0,��
2019/12/18,16:20,0.725,1.043,0.700,1.314,0.915,0.416,0.722,0.683,�k�k��,6.4,��
2019/12/18,16:30,0.726,1.044,0.702,1.318,0.912,0.414,0.723,0.686,�k��,6.3,��
2019/12/18,16:40,0.725,1.044,0.700,1.316,0.914,0.414,0.722,0.685,�k��,7.5,��
2019/12/18,16:50,0.724,1.045,0.700,1.318,0.914,0.415,0.723,0.684,�k��,7.1,��
2019/12/18,17:00,0.725,1.045,0.700,1.316,0.914,0.414,0.722,0.684,�k��,5.2,��
2019/12/18,17:10,0.724,1.046,0.702,1.317,0.913,0.415,0.723,0.685,���k��,5.5,��
2019/12/18,17:20,0.726,1.047,0.701,1.317,0.915,0.413,0.722,0.684,���k��,4.9,��
2019/12/18,17:30,0.726,1.046,0.701,1.317,0.913,0.413,0.722,0.686,�k��,4.7,��
2019/12/18,17:40,0.724,1.044,0.699,1.318,0.912,0.414,0.722,0.685,�k��,5.2,��
2019/12/18,17:50,0.725,1.042,0.703,1.316,0.915,0.414,0.724,0.685,���k��,5.5,��
2019/12/18,18:00,0.724,1.044,0.701,1.316,0.914,0.414,0.723,0.684,���k��,4.5,��
2019/12/18,18:10,0.724,1.045,0.701,1.315,0.913,0.415,0.725,0.685,���k��,5.3,��
2019/12/18,18:20,0.724,1.044,0.701,1.317,0.914,0.413,0.722,0.686,�k��,5.6,��
2019/12/18,18:30,0.725,1.045,0.701,1.317,0.914,0.414,0.723,0.684,���k��,4.9,��
2019/12/18,18:40,0.723,1.044,0.702,1.315,0.913,0.414,0.722,0.685,�k��,4.3,��
2019/12/18,18:50,0.725,1.044,0.699,1.314,0.913,0.413,0.723,0.683,���k��,3.9,��
2019/12/18,19:00,0.724,1.043,0.701,1.315,0.914,0.413,0.722,0.684,���k��,4.0,��
2019/12/18,19:10,0.724,1.045,0.699,1.318,0.914,0.414,0.723,0.684,���k��,4.5,��
2019/12/18,19:20,0.722,1.042,0.699,1.318,0.914,0.413,0.725,0.684,���k��,3.8,��
2019/12/18,19:30,0.723,1.041,0.700,1.314,0.914,0.415,0.724,0.682,���k��,3.6,��
2019/12/18,19:40,0.724,1.043,0.700,1.314,0.912,0.413,0.723,0.684,�k��,2.9,��
2019/12/18,19:50,0.724,1.044,0.700,1.317,0.913,0.414,0.723,0.684,���k��,3.0,��
2019/12/18,20:00,0.722,1.043,0.701,1.317,0.913,0.414,0.725,0.682,���k��,2.2,��
2019/12/18,20:10,0.723,1.043,0.699,1.317,0.912,0.413,0.722,0.684,���k��,2.8,��
2019/12/18,20:20,0.722,1.042,0.699,1.316,0.912,0.411,0.723,0.684,���k��,3.5,��
2019/12/18,20:30,0.722,1.042,0.700,1.316,0.914,0.414,0.724,0.682,���k��,4.2,��
2019/12/18,20:40,0.723,1.042,0.699,1.314,0.914,0.412,0.723,0.684,���k��,3.1,��
2019/12/18,20:50,0.722,1.043,0.698,1.314,0.911,0.413,0.721,0.683,���k��,3.5,��
2019/12/18,21:00,0.723,1.044,0.699,1.314,0.914,0.413,0.723,0.685,�k��,2.8,��
2019/12/18,21:10,0.723,1.040,0.700,1.314,0.913,0.413,0.722,0.684,�k��,3.0,��
2019/12/18,21:20,0.722,1.041,0.699,1.317,0.913,0.412,0.720,0.686,���k��,4.7,��
2019/12/18,21:30,0.723,1.042,0.699,1.317,0.914,0.412,0.721,0.683,���k��,3.6,��
2019/12/18,21:40,0.723,1.041,0.698,1.313,0.913,0.412,0.720,0.683,���k��,3.3,��
2019/12/18,21:50,0.721,1.040,0.699,1.315,0.912,0.412,0.722,0.684,���k��,4.3,��
2019/12/18,22:00,0.723,1.039,0.700,1.317,0.913,0.412,0.723,0.685,���k��,4.2,��
2019/12/18,22:10,0.722,1.040,0.700,1.314,0.911,0.412,0.722,0.684,���k��,3.5,��
2019/12/18,22:20,0.722,1.043,0.699,1.314,0.915,0.414,0.722,0.683,���k��,4.2,��
2019/12/18,22:30,0.720,1.043,0.700,1.314,0.915,0.413,0.722,0.681,���k��,4.9,��
2019/12/18,22:40,0.720,1.042,0.700,1.314,0.914,0.412,0.720,0.684,���k��,5.8,��
2019/12/18,22:50,0.725,1.043,0.700,1.316,0.913,0.412,0.722,0.684,���k��,5.5,��
2019/12/18,23:00,0.723,1.044,0.700,1.316,0.913,0.412,0.723,0.683,���k��,4.9,��
2019/12/18,23:10,0.722,1.043,0.700,1.316,0.913,0.411,0.723,0.684,�k��,4.9,��
2019/12/18,23:20,0.723,1.043,0.700,1.313,0.914,0.411,0.722,0.684,�k��,5.8,��
2019/12/18,23:30,0.723,1.044,0.701,1.315,0.912,0.413,0.722,0.685,�k��,5.5,��
2019/12/18,23:40,0.723,1.043,0.700,1.317,0.914,0.410,0.722,0.684,�k��,6.6,��
2019/12/18,23:50,0.725,1.042,0.699,1.314,0.914,0.414,0.723,0.684,�k��,6.6,��
